MET'MAP v2.0
soon released !

Expected late october,
this new version will be
more efficient, smarter,
and hosted on a brand new
server x3 powerfull...
...and still free !


Not compatible ?
Try the mobile version !

LOG IN : | Subscribe | Disclaimer | Who is Orbifly ? |
ICAO code :

TAF - EPSN Swidwin - 05 Jun 2020 08:03 UTC - Data Source NOAA   


- Airport Elevation : 385 ft
- No reported NOTAMs.


EPSN - Swidwin

NO METAR
TAF TAF EPSN
Valid from the 05 at 06:00 until the 05 at 15:00 UTC


050500Z 0506/0515 27008KT 6000 RA BKN006 OVC012
PROB30
TEMPO 0506/0509 3000 RA BKN004
BECMG 0510/0513 9999 BKN015
TEMPO 0510/0515 5000 SHRA BKN010CB

Source NOAA


MET'MAP, your aeronautical weather chart ! - Copyright ORBIFLY December 2007

Programming & Development : Alexandra Zaïnal
Co-Developer : Marc-Olivier Méhu
Technical & hardware support : Manuel Goepfert
Concept & Financing : Baudouin d'Aumeries